STARLINK-4360, 53482

Orbit data source: Space-Track

STARLINK-4360, 53482 is a payload satellite owned by SpaceX/Seattle (US) in SSO that was launched on Fri, 12 Aug 2022 UTC via an FALCON 9 launch vehicle from the Air Force Western Test Range (AFWTR). Payload-class satellites include a variety of spacecraft equipped with specific instruments for various scientific and technological missions. These include communications satellites like Starlink; space stations such as the ISS; scientific satellites like the Hubble; Earth observation satellites from companies like Planet Labs, Umbra, and HawkEye 360; GPS; miniature CubeSats for education and research; and military/defense satellites.

Loading next visibility...
Identifier
53482, 2022-099T
Orbit
SSO
Country
Flag of USUS
Related business
Manufacturer
SpaceX/Seattle
Mission
Operational Commercial Communications
Bus & Motor
STARLINK, Unknown motor
Mass
300 kg wet, ~275 kg dry
Launch date (UTC)
2022-08-12 (3 years ago)
Launch vehicle
FALCON 9
Launch site
Air Force Western Test Range (AFWTR)
Object type
Payload
Rocket body
Debris
Shape & HBR
Box + 1 Pan, 10.1 m
Radar Cross Section
13.562 m², Large (>1 m²)

Expand to show TLE details & history
Last TLE update: 17 hours ago

TLE from 17 hours ago
0 STARLINK-4360
1 53482U 22099T   25346.91106032  .00005576  00000-0  43785-3 0  9999
2 53482  97.5988 105.2724 0002002 258.0007 102.0993 15.01301191182969
Epoch: 2025-12-12T21:51Z
TLE epoch observation values (Epoch: 2025-12-12T21:51:55.611Z)
Latitude
-0.00004°
Longitude
55.4448°
Altitude
566.234 km
Speed
7.578 km/s
True Right ascension
07h 01m 05s
True Declination
0° 00' 00"
Sunlit
Object was in full shadow at epoch
Visualization orbit readout
Latitude
Unknown
Longitude
Unknown
Altitude
Unknown
Speed
Unknown
Apparent Right ascension
Unknown
Apparent Declination
Unknown
Sunlit
N/A
Visualization observer readout
Local Sidereal Time
13:10:58
Azimuth
Unknown
Elevation
Unknown
Doppler factor
Unknown
Orbital elements
Apogee altitude
561.271 km
Perigee altitude
558.493 km
Semi-major axis
6,938.019 km
Eccentricity
0.0002
Inclination
97.5988°
RAAN
105.2724°
Arg. of periapsis
258.0007°
True anomaly
102.12173°
Mean anomaly
102.0993°
Eccentric anomaly
102.11052°
Mean motion
3.75569 °/min
Orbital period
95.85 mins
BSTAR
0.00043785
Loading maneuver chart data...
Computing Atmospheric mass density...
Loading historical data...
Loading historical data...
Loading historical data...
Loading historical data...
Loading historical data...
Loading historical data...
Loading historical data...

Documentation

Showing up to 5 results
|